Skip Page Navigation
NASA JPL Caltech
NASA Logo - Jet Propulsion Laboratory + View the NASA Portal
+ Center for Near-Earth Object Studies
JPL Home Earth Solar System Stars & Galaxies Technology
JPL Solar System Dynamics
BODIES ORBITS EPHEMERIDES TOOLS PHYSICAL DATA DISCOVERY FAQ SITE MAP
JPL Small-Body Database Browser
Search: [ help ]  
105282 (2000 QK36)
Classification: Main-belt Asteroid          SPK-ID: 2105282
Ephemeris | Orbit Diagram | Orbital Elements | Mission Design | Physical Parameters | Discovery Circumstances ]

[ hide orbit diagram ]

For accurate long-term ephemerides, please instead use our Horizons system.This orbit viewer was implemented using two-body methods, and hence should not be used for determining accurate long-term trajectories (over several years or decades) or planetary encounter circumstances.


[ revert to old Java-based viewer ]

Orbital Elements at Epoch 2459000.5 (2020-May-31.0) TDB
Reference: JPL 21 (heliocentric ecliptic J2000)
 Element Value Uncertainty (1-sigma)   Units 
e .1806320207858478 3.8682e-08  
a 2.597543048458568 1.5865e-08 au
q 2.128343598537265 1.0378e-07 au
i 13.87491949598813 5.026e-06 deg
node 147.902059245482 1.712e-05 deg
peri 266.7194599613394 2.2461e-05 deg
M 187.8575439549865 1.5409e-05 deg
tp 2459731.686310325177
(2022-Jun-01.18631033)
6.8368e-05 TDB
period 1529.123481590344
4.19
1.4009e-05
3.835e-08
d
yr
n .2354289920560156 2.1569e-09 deg/d
Q 3.06674249837987 1.8731e-08 au
  Orbit Determination Parameters
   # obs. used (total)      743  
   data-arc span      8089 days (22.15 yr)  
   first obs. used      1998-03-03  
   last obs. used      2020-04-25  
   planetary ephem.      DE431  
   SB-pert. ephem.      SB431-N16  
   condition code      0  
   norm. resid. RMS      .5825  
   source      ORB  
   producer      Otto Matic  
   solution date      2020-May-20 18:26:56  

Additional Information
 Earth MOID = 1.19177 au 
 Jupiter MOID = 2.42351 au 
 T_jup = 3.352 
[ show covariance matrix ]

Ephemeris | Orbit Diagram | Orbital Elements | Mission Design | Physical Parameters | Discovery Circumstances ]

Physical Parameter Table
Parameter Symbol Value Units Sigma Reference Notes
absolute magnitude H 15.2   n/a MPO432575  
diameter diameter 2.596 km 0.477 urn:nasa:pds:neowise_diameters_albedos::2.0[mainbelt] (http://adsabs.harvard.edu/abs/2011ApJ...741...68M)  
geometric albedo albedo 0.287   0.164 urn:nasa:pds:neowise_diameters_albedos::2.0[mainbelt] (http://adsabs.harvard.edu/abs/2011ApJ...741...68M)  

105282 (2000 QK36)          Discovered 2000-Aug-24 by LINEAR at Socorro
Reference: 20051019/Numbers.arcLast Updated: 2005-10-26
Ephemeris | Orbit Diagram | Orbital Elements | Mission Design | Physical Parameters | Discovery Circumstances ]
ABOUT SSD CREDITS/AWARDS PRIVACY/COPYRIGHT GLOSSARY LINKS
FirstGov 2020-Aug-12 14:02 UT
(server date/time)  
NASA Home Page
Site Manager:   Ryan S. Park
Webmaster  Alan B. Chamberlin